EW1613 Weather Reports


time (UTC)temp
F
wind
direction
speed
knots
gust
knots
rain 1hr
in
rain 24hr
in
rain mn
in
humidity
%
barometer
mb
20260906100105 85 62 2.6 9.6 0.00 0.00 0.00 50 1022.5
20260906095627 85 37 5.2 9.6 0.00 0.00 0.00 50 1022.5
20260906095059 85 142 1.7 10.4 0.00 0.00 0.00 51 1022.5
20260906094620 85 46 3.5 8.7 0.00 0.00 0.00 51 1022.6
20260906094116 85 60 3.5 7.8 0.00 0.00 0.00 51 1022.6
20260906093615 85 82 4.3 7.8 0.00 0.00 0.00 51 1022.6
20260906093109 85 88 2.6 7.8 0.00 0.00 0.00 51 1022.7
20260906092630 84 98 3.5 7.8 0.00 0.00 0.00 52 1022.7
20260906092103 84 49 3.5 8.7 0.00 0.00 0.00 53 1022.8
20260906091604 84 63 4.3 8.7 0.00 0.00 0.00 51 1022.8
20260906091057 84 85 2.6 8.7 0.00 0.00 0.00 53 1022.8
20260906090619 84 76 1.7 7.0 0.00 0.00 0.00 53 1022.8
20260906090051 83 85 4.3 7.8 0.00 0.00 0.00 53 1022.8
20260906085552 83 84 3.5 7.8 0.00 0.00 0.00 53 1022.9
20260906085113 83 33 3.5 8.7 0.00 0.00 0.00 53 1022.9
20260906084606 83 74 5.2 8.7 0.00 0.00 0.00 52 1022.8
20260906084100 83 69 4.3 8.7 0.00 0.00 0.00 53 1022.8
20260906083601 83 80 2.6 8.7 0.00 0.00 0.00 53 1022.8
20260906083055 83 66 4.3 8.7 0.00 0.00 0.00 53 1022.9
20260906082616 83 77 4.3 8.7 0.00 0.00 0.00 54 1022.8
20260906082056 83 355 3.5 9.6 0.00 0.00 0.00 54 1022.8
20260906081637 83 43 4.3 9.6 0.00 0.00 0.00 54 1022.8
20260906081109 82 36 3.5 8.7 0.00 0.00 0.00 55 1022.7
20260906080610 82 91 2.6 10.4 0.00 0.00 0.00 57 1022.8
20260906080103 82 79 4.3 10.4 0.00 0.00 0.00 57 1022.8
20260906075604 81 76 4.3 10.4 0.00 0.00 0.00 57 1022.8
20260906075057 81 36 5.2 8.7 0.00 0.00 0.00 58 1022.7
20260906074558 81 69 3.5 8.7 0.00 0.00 0.00 58 1022.7
20260906074120 81 74 4.3 7.8 0.00 0.00 0.00 59 1022.7
20260906073609 80 72 3.5 8.7 0.00 0.00 0.00 60 1022.6
20260906073108 80 47 4.3 8.7 0.00 0.00 0.00 60 1022.5
20260906072602 80 61 4.3 9.6 0.00 0.00 0.00 60 1022.6
20260906072103 80 57 3.5 9.6 0.00 0.00 0.00 61 1022.6
20260906071557 79 46 3.5 8.7 0.00 0.00 0.00 62 1022.5
20260906071057 79 74 3.5 8.7 0.00 0.00 0.00 63 1022.5
20260906070556 79 355 2.6 5.2 0.00 0.00 0.00 64 1022.4
20260906070106 78 49 1.7 7.0 0.00 0.00 0.00 66 1022.4
20260906065626 78 34 3.5 7.0 0.00 0.00 0.00 66 1022.4
20260906065105 78 39 2.6 7.8 0.00 0.00 0.00 66 1022.4
20260906064607 78 33 3.5 7.8 0.00 0.00 0.00 66 1022.3
20260906064100 77 18 3.5 7.8 0.00 0.00 0.00 67 1022.2
20260906063554 77 34 3.5 7.0 0.00 0.00 0.00 68 1022.2
20260906063055 77 46 1.7 4.3 0.00 0.00 0.00 70 1022.2
20260906062552 76 34 1.7 7.8 0.00 0.00 0.00 70 1022.1
20260906062053 76 19 1.7 4.3 0.00 0.00 0.00 72 1022.0
20260906061615 76 40 1.7 5.2 0.00 0.00 0.00 73 1022.0
20260906061108 75 28 1.7 5.2 0.00 0.00 0.00 73 1022.0
20260906060629 75 5 1.7 4.3 0.00 0.00 0.00 74 1021.9
20260906060108 75 14 0.9 3.5 0.00 0.00 0.00 75 1021.9
20260906055602 74 13 1.7 3.5 0.00 0.00 0.00 75 1021.9
20260906055102 74 17 0.9 2.6 0.00 0.00 0.00 77 1021.8
20260906054555 73 16 0.0 3.5 0.00 0.00 0.00 78 1021.7
20260906054116 73 17 0.0 4.3 0.00 0.00 0.00 78 1021.5
20260906053610 72 346 0.9 4.3 0.00 0.00 0.00 79 1021.5
20260906053110 72 5 0.9 2.6 0.00 0.00 0.00 80 1021.5
20260906052604 72 5 0.0 1.7 0.00 0.00 0.00 81 1021.4
20260906052105 72 5 0.9 1.7 0.00 0.00 0.00 81 1021.5
20260906051559 71 5 0.0 1.7 0.00 0.00 0.00 81 1021.4
20260906051053 71 5 0.0 1.7 0.00 0.00 0.00 81 1021.4
20260906050554 71 5 0.0 2.6 0.00 0.00 0.00 81 1021.3
20260906050112 71 5 0.9 2.6 0.00 0.00 0.00 81 1021.3
20260906045604 72 5 0.0 1.7 0.00 0.00 0.00 81 1021.2
20260906045105 72 5 0.0 1.7 0.00 0.00 0.00 80 1021.1
20260906044626 72 5 0.0 1.7 0.00 0.00 0.00 80 1021.1
20260906044059 72 5 0.9 1.7 0.00 0.00 0.00 80 1021.1
20260906043558 72 5 0.0 1.7 0.00 0.00 0.00 80 1021.0
20260906043052 72 5 0.9 2.6 0.00 0.00 0.00 80 1020.9
20260906042613 72 5 0.9 3.5 0.00 0.00 0.00 80 1020.8
20260906042107 72 5 0.9 3.5 0.00 0.00 0.00 80 1020.8
20260906041607 72 355 0.9 2.6 0.00 0.00 0.00 80 1020.7
20260906041101 72 355 0.9 2.6 0.00 0.00 0.00 80 1020.7
20260906040602 72 355 0.0 2.6 0.00 0.00 0.00 79 1020.6
20260906040116 72 348 0.9 2.6 0.00 0.00 0.00 79 1020.6
20260906035616 72 350 0.0 2.6 0.00 0.00 0.00 78 1020.6
20260906035055 72 348 0.9 3.5 0.00 0.00 0.00 78 1020.6
20260906034616 72 347 0.9 3.5 0.00 0.00 0.00 78 1020.5
20260906034108 72 13 0.9 3.5 0.00 0.00 0.00 79 1020.4
20260906033609 72 13 0.0 3.5 0.00 0.00 0.00 79 1020.4
20260906033103 72 13 0.9 2.6 0.00 0.00 0.00 79 1020.4
20260906032624 72 29 0.0 3.5 0.00 0.00 0.00 79 1020.3
20260906032056 72 29 1.7 3.5 0.00 0.00 0.00 80 1020.4
20260906031557 72 5 0.9 2.6 0.00 0.00 0.00 81 1020.3
20260906031051 73 5 0.9 2.6 0.00 0.00 0.00 81 1020.4
20260906030551 73 5 0.9 2.6 0.00 0.00 0.00 81 1020.3
20260906030106 73 5 0.9 2.6 0.00 0.00 0.00 82 1020.3
20260906025606 73 351 0.0 2.6 0.00 0.00 0.00 82 1020.4
20260906025100 73 345 0.9 2.6 0.00 0.00 0.00 82 1020.4
20260906024601 73 345 0.9 2.6 0.00 0.00 0.00 83 1020.5
20260906024056 73 333 0.9 2.6 0.00 0.00 0.00 83 1020.5
20260906023617 73 335 0.9 3.5 0.00 0.00 0.00 83 1020.5
20260906023116 73 349 1.7 3.5 0.00 0.00 0.00 83 1020.5
20260906022610 73 328 0.9 2.6 0.00 0.00 0.00 84 1020.4
20260906022111 73 327 0.9 1.7 0.00 0.00 0.00 84 1020.4
20260906021625 73 327 0.9 2.6 0.00 0.00 0.00 84 1020.3
20260906021101 73 327 1.7 2.6 0.00 0.00 0.00 84 1020.2
20260906020555 73 326 0.0 1.7 0.00 0.00 0.00 84 1020.2
20260906020056 73 326 0.0 2.6 0.00 0.00 0.00 85 1020.2
20260906015606 73 326 0.9 2.6 0.00 0.00 0.00 85 1020.1
20260906015051 73 325 0.9 1.7 0.00 0.00 0.00 86 1020.1
20260906014600 73 325 0.0 1.7 0.00 0.00 0.00 86 1020.1
20260906014101 73 325 0.0 1.7 0.00 0.00 0.00 86 1020.2
20260906013555 73 323 0.9 2.6 0.00 0.00 0.00 85 1020.1
20260906013057 74 322 0.9 3.5 0.00 0.00 0.00 85 1020.1
20260906012619 74 325 1.7 3.5 0.00 0.00 0.00 85 1020.1
20260906012051 74 343 1.7 2.6 0.00 0.00 0.00 85 1020.1
20260906011612 74 347 0.9 2.6 0.00 0.00 0.00 85 1020.0
20260906011133 75 13 1.7 2.6 0.00 0.00 0.00 84 1020.0
20260906010625 75 32 0.0 0.9 0.00 0.00 0.00 85 1020.0
20260906010105 75 32 0.0 0.0 0.00 0.00 0.00 84 1019.9
20260906005559 75 32 0.0 0.0 0.00 0.00 0.00 84 1019.9
20260906005100 75 32 0.0 0.0 0.00 0.00 0.00 84 1019.9
20260906004623 75 32 0.0 0.0 0.00 0.00 0.00 84 1020.0
20260906004115 75 32 0.0 0.0 0.00 0.00 0.00 84 1019.9
20260906003554 75 32 0.0 0.0 0.00 0.00 0.00 84 1019.9
20260906003114 75 32 0.0 0.9 0.00 0.00 0.00 84 1019.9
20260906002608 75 32 0.0 2.6 0.00 0.00 0.00 84 1019.9
20260906002101 76 32 0.0 2.6 0.00 0.00 0.00 84 1019.9
20260906001601 76 30 0.9 1.7 0.00 0.00 0.00 84 1020.0
20260906001100 76 30 0.0 1.7 0.00 0.00 0.00 84 1020.1
20260906000600 76 30 0.9 1.7 0.00 0.00 0.00 84 1020.1
20260906000059 76 30 0.0 1.7 0.00 0.00 0.00 84 1019.9
20260905235613 76 30 0.0 1.7 0.00 0.00 0.00 84 1019.9
20260905235052 76 30 0.9 2.6 0.00 0.00 0.00 84 1019.9
20260905234609 76 30 0.0 2.6 0.00 0.00 0.00 84 1019.9
20260905234103 76 31 0.0 1.7 0.00 0.00 0.00 84 1019.8
20260905233623 76 31 0.0 2.6 0.00 0.00 0.00 84 1019.8
20260905233118 76 31 0.9 2.6 0.00 0.00 0.00 84 1019.8
20260905232550 76 32 0.0 1.7 0.00 0.00 0.00 85 1019.7
20260905232051 76 32 0.0 1.7 0.00 0.00 0.00 85 1019.7
20260905231605 76 32 0.0 1.7 0.00 0.00 0.00 85 1019.7
20260905231126 76 32 0.9 3.5 0.00 0.00 0.00 85 1019.7
20260905230606 76 29 0.9 3.5 0.00 0.00 0.00 86 1019.6
20260905230059 76 25 0.9 2.6 0.00 0.00 0.00 87 1019.6
20260905225559 76 24 0.9 2.6 0.00 0.00 0.00 87 1019.6
20260905225053 76 24 0.9 2.6 0.00 0.00 0.00 87 1019.5
20260905224553 76 23 0.0 1.7 0.00 0.00 0.00 87 1019.4
20260905224115 76 23 0.0 1.7 0.00 0.00 0.00 87 1019.4
20260905223550 77 23 0.9 2.6 0.00 0.00 0.00 87 1019.4
20260905223104 77 23 0.9 2.6 0.00 0.00 0.00 87 1019.4
20260905222605 77 33 0.9 2.6 0.00 0.00 0.00 87 1019.4
20260905222126 77 31 0.9 2.6 0.00 0.00 0.00 87 1019.4
20260905221558 77 25 0.0 2.6 0.00 0.00 0.00 87 1019.4
20260905221059 78 25 0.0 2.6 0.00 0.00 0.00 86 1019.3
20260905220552 78 25 0.9 1.7 0.00 0.00 0.00 86 1019.2
20260905220112 78 98 0.0 0.0 0.00 0.00 0.00 85 1019.1
20260905215605 78 98 0.0 0.0 0.00 0.00 0.00 85 1019.1
20260905215125 79 98 0.0 0.0 0.00 0.00 0.00 84 1019.1
20260905214608 79 98 0.0 0.0 0.00 0.00 0.00 84 1019.1
20260905214100 79 98 0.0 0.0 0.00 0.00 0.00 84 1019.0
20260905213621 79 98 0.0 0.0 0.00 0.00 0.00 84 1019.0
20260905213053 79 98 0.0 0.0 0.00 0.00 0.00 83 1018.9
20260905212554 80 98 0.0 0.0 0.00 0.00 0.00 83 1018.8
20260905212108 80 98 0.0 0.0 0.00 0.00 0.00 82 1018.7
20260905211609 80 98 0.0 1.7 0.00 0.00 0.00 82 1018.6
20260905211103 80 98 0.0 2.6 0.00 0.00 0.00 82 1018.5
20260905210604 80 98 0.0 2.6 0.00 0.00 0.00 82 1018.5
20260905210057 80 98 0.0 2.6 0.00 0.00 0.00 81 1018.5
20260905205558 80 96 0.9 2.6 0.00 0.00 0.00 81 1018.5
20260905205052 81 97 1.7 2.6 0.00 0.00 0.00 81 1018.6
20260905204613 81 96 0.0 3.5 0.00 0.00 0.00 81 1018.5
20260905204107 81 96 1.7 3.5 0.00 0.00 0.00 80 1018.5
20260905203608 81 98 0.9 5.2 0.00 0.00 0.00 80 1018.4
20260905203102 81 109 1.7 5.2 0.00 0.00 0.00 80 1018.4
20260905202603 81 119 0.9 4.3 0.00 0.00 0.00 80 1018.4
20260905202113 81 110 1.7 5.2 0.00 0.00 0.00 79 1018.4
20260905201552 81 99 1.7 4.3 0.00 0.00 0.00 79 1018.4
20260905201113 81 138 0.9 4.3 0.00 0.00 0.00 79 1018.4
20260905200607 81 128 1.7 4.3 0.00 0.00 0.00 78 1018.3
20260905200101 82 145 1.7 4.3 0.00 0.00 0.00 78 1018.3
20260905195602 82 142 2.6 4.3 0.00 0.00 0.00 78 1018.2
20260905195055 82 173 1.7 4.3 0.00 0.00 0.00 77 1018.2
20260905194557 82 144 1.7 5.2 0.00 0.00 0.00 77 1018.1
20260905194051 82 145 2.6 5.2 0.00 0.00 0.00 77 1018.1
20260905193552 83 156 1.7 4.3 0.00 0.00 0.00 76 1017.9
20260905193106 83 163 1.7 5.2 0.00 0.00 0.00 76 1017.9
20260905192627 83 151 1.7 5.2 0.00 0.00 0.00 75 1017.7
20260905192127 83 164 2.6 5.2 0.00 0.00 0.00 74 1017.6
20260905191607 83 150 1.7 4.3 0.00 0.00 0.00 74 1017.5
20260905191100 84 163 0.9 3.5 0.00 0.00 0.00 73 1017.5
20260905190554 84 159 0.9 2.6 0.00 0.00 0.00 72 1017.5
20260905190055 84 151 0.9 2.6 0.00 0.00 0.00 72 1017.4
20260905185616 85 101 0.9 2.6 0.00 0.00 0.00 72 1017.4
20260905185050 85 101 0.0 2.6 0.00 0.00 0.00 71 1017.2
20260905184611 85 101 0.9 2.6 0.00 0.00 0.00 71 1017.2
20260905184106 85 101 0.9 2.6 0.00 0.00 0.00 71 1017.1
20260905183600 85 98 0.9 2.6 0.00 0.00 0.00 70 1017.0
20260905183100 85 96 0.9 2.6 0.00 0.00 0.00 70 1016.9
20260905182554 86 94 0.9 3.5 0.00 0.00 0.00 69 1016.8
20260905182054 86 99 0.9 3.5 0.00 0.00 0.00 69 1016.8
20260905181615 86 111 1.7 3.5 0.00 0.00 0.00 68 1016.7
20260905181129 87 103 1.7 3.5 0.00 0.00 0.00 68 1016.6
20260905180606 87 103 1.7 5.2 0.00 0.00 0.00 67 1016.6
20260905180127 87 102 1.7 5.2 0.00 0.00 0.00 65 1016.5
20260905175606 88 112 0.9 2.6 0.00 0.00 0.00 65 1016.5
20260905175100 88 111 0.9 3.5 0.00 0.00 0.00 63 1016.4
20260905174600 89 111 0.9 3.5 0.00 0.00 0.00 61 1016.3
20260905174122 89 98 0.9 2.6 0.00 0.00 0.00 60 1016.3
20260905173554 90 94 0.9 7.8 0.00 0.00 0.00 57 1016.2
20260905173115 90 92 3.5 7.8 0.00 0.00 0.00 54 1016.1
20260905172609 91 158 0.0 1.7 0.00 0.00 0.00 49 1016.0
20260905172105 91 158 0.0 1.7 0.00 0.00 0.00 48 1015.9
20260905171626 91 159 0.0 1.7 0.00 0.00 0.00 48 1015.9
20260905171059 91 159 0.0 1.7 0.00 0.00 0.00 48 1015.9
20260905170600 92 159 0.0 1.7 0.00 0.00 0.00 48 1015.9
20260905170124 92 159 0.9 1.7 0.00 0.00 0.00 47 1015.9
20260905165556 92 157 0.0 2.6 0.00 0.00 0.00 47 1015.9
20260905165117 92 158 1.7 3.5 0.00 0.00 0.00 46 1015.8
20260905164550 92 157 1.7 3.5 0.00 0.00 0.00 46 1015.7
20260905164111 93 145 1.7 3.5 0.00 0.00 0.00 46 1015.7
20260905163604 93 151 0.9 4.3 0.00 0.00 0.00 46 1015.6
20260905163125 93 148 1.7 4.3 0.00 0.00 0.00 46 1015.6
20260905162605 93 148 1.7 2.6 0.00 0.00 0.00 46 1015.6
20260905162058 93 138 0.9 2.6 0.00 0.00 0.00 46 1015.5
20260905161558 93 69 0.0 2.6 0.00 0.00 0.00 47 1015.5
20260905161052 94 68 1.7 2.6 0.00 0.00 0.00 45 1015.5
20260905160613 94 214 0.0 2.6 0.00 0.00 0.00 44 1015.5
20260905160106 95 216 0.9 1.7 0.00 0.00 0.00 45 1015.6
20260905155607 95 235 0.0 3.5 0.00 0.00 0.00 45 1015.5
20260905155101 95 236 1.7 3.5 0.00 0.00 0.00 44 1015.5
20260905154602 95 252 0.0 1.7 0.00 0.00 0.00 44 1015.4
20260905154056 95 254 0.0 0.9 0.00 0.00 0.00 45 1015.5
20260905153616 94 257 0.0 2.6 0.00 0.00 0.00 46 1015.4
20260905153050 94 257 0.9 3.5 0.00 0.00 0.00 46 1015.3
20260905152611 94 189 0.9 3.5 0.00 0.00 0.00 46 1015.3
20260905152104 94 243 0.0 3.5 0.00 0.00 0.00 46 1015.3
20260905151605 93 233 0.9 3.5 0.00 0.00 0.00 46 1015.4
20260905151105 93 205 0.9 3.5 0.00 0.00 0.00 47 1015.3
20260905150558 93 193 0.9 5.2 0.00 0.00 0.00 47 1015.4
20260905150059 93 203 1.7 5.2 0.00 0.00 0.00 48 1015.3
20260905145553 93 201 0.9 3.5 0.00 0.00 0.00 49 1015.3
20260905145113 93 90 0.9 2.6 0.00 0.00 0.00 48 1015.3
20260905144607 93 67 0.9 4.3 0.00 0.00 0.00 48 1015.3
20260905144109 94 101 1.7 4.3 0.00 0.00 0.00 48 1015.3
20260905143602 94 360 0.9 3.5 0.00 0.00 0.00 47 1015.3
20260905143059 94 293 1.7 2.6 0.00 0.00 0.00 46 1015.5
20260905142553 94 175 0.9 2.6 0.00 0.00 0.00 47 1015.5
20260905142115 94 175 0.0 2.6 0.00 0.00 0.00 47 1015.5
20260905141614 94 173 0.9 3.5 0.00 0.00 0.00 48 1015.5
20260905141124 93 205 1.7 5.2 0.00 0.00 0.00 48 1015.6
20260905140604 93 214 1.7 5.2 0.00 0.00 0.00 48 1015.6
20260905140056 93 200 2.6 5.2 0.00 0.00 0.00 49 1015.6
20260905135555 93 153 2.6 4.3 0.00 0.00 0.00 49 1015.6
20260905135116 93 88 0.9 2.6 0.00 0.00 0.00 49 1015.7
20260905134550 93 61 0.9 3.5 0.00 0.00 0.00 49 1015.7
20260905134131 93 348 0.9 3.5 0.00 0.00 0.00 49 1015.7
20260905133603 93 321 0.9 5.2 0.00 0.00 0.00 49 1015.8
20260905133103 93 309 1.7 6.1 0.00 0.00 0.00 49 1015.9
20260905132617 93 266 0.9 4.3 0.00 0.00 0.00 49 1016.0
20260905132056 93 355 0.9 3.5 0.00 0.00 0.00 50 1016.0
20260905131551 93 271 0.9 6.1 0.00 0.00 0.00 50 1016.1
20260905131051 92 233 1.7 6.1 0.00 0.00 0.00 49 1016.1
20260905130612 92 220 1.7 5.2 0.00 0.00 0.00 50 1016.1
20260905130106 92 164 2.6 8.7 0.00 0.00 0.00 50 1016.2
20260905125601 93 230 5.2 8.7 0.00 0.00 0.00 49 1016.2
20260905125102 93 246 1.7 6.1 0.00 0.00 0.00 49 1016.2
20260905124556 93 152 1.7 5.2 0.00 0.00 0.00 50 1016.2
20260905124118 93 147 1.7 5.2 0.00 0.00 0.00 49 1016.4
20260905123557 93 111 1.7 4.3 0.00 0.00 0.00 49 1016.5
20260905123111 92 216 2.6 3.5 0.00 0.00 0.00 49 1016.5
20260905122558 92 319 0.9 3.5 0.00 0.00 0.00 50 1016.5
20260905122119 92 244 0.0 3.5 0.00 0.00 0.00 50 1016.6
20260905121551 91 261 0.9 2.6 0.00 0.00 0.00 50 1016.6
20260905121052 90 344 0.9 2.6 0.00 0.00 0.00 51 1016.7
20260905120612 91 38 1.7 2.6 0.00 0.00 0.00 50 1016.7
20260905120105 91 312 0.0 2.6 0.00 0.00 0.00 50 1016.8
20260905115605 90 308 0.9 2.6 0.00 0.00 0.00 50 1016.8
20260905115059 90 305 0.9 2.6 0.00 0.00 0.00 50 1016.8
20260905114600 90 269 0.0 7.0 0.00 0.00 0.00 51 1016.8
20260905114053 90 309 2.6 7.0 0.00 0.00 0.00 50 1016.9
20260905113554 90 271 0.9 6.1 0.00 0.00 0.00 51 1016.8
20260905113135 90 295 0.9 6.1 0.00 0.00 0.00 51 1016.8
20260905112635 89 226 0.9 8.7 0.00 0.00 0.00 53 1016.8
20260905112107 88 346 3.5 8.7 0.00 0.00 0.00 55 1016.8
20260905111609 88 26 1.7 3.5 0.00 0.00 0.00 55 1016.8
20260905111115 89 55 0.9 3.5 0.00 0.00 0.00 53 1016.8
20260905110555 89 333 2.6 3.5 0.00 0.00 0.00 52 1016.9
20260905110116 89 355 0.9 3.5 0.00 0.00 0.00 52 1016.9
20260905105608 89 259 1.7 3.5 0.00 0.00 0.00 53 1017.0
20260905105102 88 10 0.0 2.6 0.00 0.00 0.00 53 1016.9
20260905104603 88 43 0.9 2.6 0.00 0.00 0.00 54 1016.9
20260905104057 87 49 0.0 3.5 0.00 0.00 0.00 54 1016.9
20260905103618 87 40 0.9 4.3 0.00 0.00 0.00 54 1017.0
20260905103059 87 5 2.6 4.3 0.00 0.00 0.00 54 1017.1
20260905102550 87 5 0.0 2.6 0.00 0.00 0.00 56 1017.1
20260905102111 86 5 0.0 3.5 0.00 0.00 0.00 56 1017.1
20260905101550 86 32 1.7 3.5 0.00 0.00 0.00 56 1017.1
20260905101104 86 327 1.7 3.5 0.00 0.00 0.00 56 1017.0
20260905100605 86 311 0.9 3.5 0.00 0.00 0.00 57 1017.1